Tracking 28341 objects as of 5-Dec-2023
HD Live streaming from Space Station
objects crossing your sky now

STARLINK-4020

Track STARLINK-4020 now!
10-day predictions
STARLINK-4020 is classified as:


NORAD ID: 52703
Int'l Code: 2022-053AZ
Perigee: 545.8 km
Apogee: 547.8 km
Inclination: 53.2 °
Period: 95.4 minutes
Semi major axis: 6917 km
RCS: Unknown
Launch date: May 18, 2022
Source: United States (US)
Launch site: AIR FORCE EASTERN TEST RANGE (AFETR)
Your satellite tracking list
Your tracking list is empty




NASA's NSSDC Master Catalog

Two Line Element Set (TLE):
1 52703U 22053AZ  23339.12465680  .00009995  00000-0  64492-3 0  9991
2 52703  53.2162 240.2329 0001457  95.7180 264.3978 15.08856115 86257
Source of the keplerian elements: AFSPC